• In Belarus
  • List of Countries
  • For 7 days
  • Water Temperature
  • Satellite Maps
  • Weather Map
  • Weather Widgets
  • user-avatar
    Login

    Hourly Weather Burg bei Magdeburg

    Today, 16 January, Wednesday

    Time Temperature Precipitation Wind Pressure Humidity
    00:00 +5°C° 0.1 mm 8 mps 752 mmHg 83%
    01:00 +5°C° 0 mm 7 mps 752 mmHg 84%
    02:00 +5°C° 0 mm 7 mps 752 mmHg 83%
    03:00 +5°C° 0 mm 7 mps 752 mmHg 83%
    04:00 +5°C° 0 mm 7 mps 752 mmHg 83%
    05:00 +4°C° 0 mm 6 mps 752 mmHg 83%
    06:00 +4°C° 0 mm 6 mps 752 mmHg 83%
    07:00 +5°C° 0 mm 3 mps 752 mmHg 84%
    08:00 +5°C° 0 mm 4 mps 752 mmHg 83%
    09:00 +5°C° 0 mm 4 mps 752 mmHg 83%
    10:00 +5°C° 0 mm 5 mps 752 mmHg 82%
    11:00 +5°C° 0 mm 5 mps 752 mmHg 80%
    12:00 +6°C° 0 mm 5 mps 752 mmHg 79%
    13:00 +6°C° 0 mm 4 mps 751 mmHg 80%
    14:00 +6°C° 0 mm 4 mps 751 mmHg 78%
    15:00 +6°C° 0 mm 5 mps 750 mmHg 77%
    16:00 +5°C° 0 mm 5 mps 750 mmHg 75%
    17:00 +5°C° 0 mm 5 mps 750 mmHg 76%
    18:00 +3°C° 0 mm 5 mps 749 mmHg 76%
    19:00 +3°C° 0 mm 5 mps 749 mmHg 77%
    20:00 +3°C° 0.1 mm 4 mps 748 mmHg 78%
    21:00 +3°C° 0.1 mm 4 mps 748 mmHg 78%
    22:00 +3°C° 0.1 mm 4 mps 747 mmHg 79%
    23:00 +3°C° 0 mm 4 mps 746 mmHg 78%

    Tomorrow, 17 January, Thursday

    Time Temperature Precipitation Wind Pressure Humidity
    00:00 +3°C° 0 mm 4 mps 746 mmHg 78%
    01:00 +2°C° 0 mm 5 mps 745 mmHg 77%
    02:00 +2°C° 0.1 mm 5 mps 745 mmHg 77%
    03:00 +2°C° 0.1 mm 5 mps 744 mmHg 77%
    04:00 +2°C° 0.1 mm 6 mps 744 mmHg 77%
    05:00 +3°C° 0.2 mm 6 mps 744 mmHg 79%
    06:00 +3°C° 0.2 mm 6 mps 744 mmHg 80%
    07:00 +3°C° 0.2 mm 6 mps 744 mmHg 81%
    08:00 +3°C° 0 mm 5 mps 745 mmHg 81%
    09:00 +3°C° 0 mm 5 mps 745 mmHg 80%
    10:00 +3°C° 0 mm 5 mps 745 mmHg 80%
    11:00 +3°C° 0 mm 6 mps 745 mmHg 75%
    12:00 +4°C° 0 mm 6 mps 745 mmHg 70%
    13:00 +5°C° 0 mm 7 mps 745 mmHg 65%
    14:00 +4°C° 0.2 mm 6 mps 745 mmHg 68%
    15:00 +5°C° 0.2 mm 5 mps 745 mmHg 72%
    16:00 +4°C° 0.2 mm 3 mps 745 mmHg 76%
    17:00 +4°C° 0.4 mm 4 mps 745 mmHg 75%
    18:00 +2°C° 0.4 mm 5 mps 746 mmHg 75%
    19:00 +2°C° 0.4 mm 6 mps 746 mmHg 75%
    20:00 +1°C° 0 mm 6 mps 747 mmHg 75%
    21:00 -1°C° 0 mm 6 mps 747 mmHg 74%
    22:00 -2°C° 0 mm 6 mps 748 mmHg 74%
    23:00 -2°C° 0 mm 6 mps 749 mmHg 75%

    Day after tomorrow, 18 January, Friday

    Time Temperature Precipitation Wind Pressure Humidity
    00:00 -2°C° 0 mm 6 mps 750 mmHg 75%
    01:00 -1°C° 0 mm 5 mps 751 mmHg 76%
    02:00 -2°C° 0 mm 5 mps 752 mmHg 78%
    03:00 -2°C° 0 mm 5 mps 752 mmHg 79%
    04:00 -3°C° 0 mm 4 mps 753 mmHg 81%
    05:00 -3°C° 0 mm 4 mps 754 mmHg 79%
    06:00 -3°C° 0 mm 4 mps 755 mmHg 77%
    07:00 -3°C° 0 mm 4 mps 756 mmHg 75%
    08:00 -3°C° 0 mm 4 mps 757 mmHg 72%
    09:00 -3°C° 0 mm 4 mps 758 mmHg 70%
    10:00 -2°C° 0 mm 4 mps 759 mmHg 67%
    11:00 -1°C° 0 mm 4 mps 759 mmHg 62%
    12:00 +1°C° 0 mm 3 mps 759 mmHg 57%
    13:00 +2°C° 0 mm 3 mps 759 mmHg 52%
    14:00 +1°C° 0 mm 3 mps 759 mmHg 56%
    15:00 +1°C° 0 mm 3 mps 759 mmHg 60%
    16:00 +2°C° 0 mm 2 mps 760 mmHg 65%
    17:00 +1°C° 0 mm 2 mps 760 mmHg 68%
    18:00 -1°C° 0 mm 2 mps 760 mmHg 72%
    19:00 -1°C° 0 mm 3 mps 760 mmHg 75%
    20:00 -1°C° 0 mm 2 mps 760 mmHg 75%
    21:00 -1°C° 0 mm 2 mps 761 mmHg 75%
    22:00 -1°C° 0 mm 2 mps 761 mmHg 75%
    23:00 -1°C° 0 mm 2 mps 761 mmHg 75%

    19 January, Saturday

    Time Temperature Precipitation Wind Pressure Humidity
    00:00 -2°C° 0 mm 2 mps 761 mmHg 74%
    01:00 -2°C° 0 mm 2 mps 761 mmHg 74%
    02:00 -2°C° 0 mm 2 mps 761 mmHg 73%
    03:00 0°C° 0 mm 1 mps 760 mmHg 72%
    04:00 0°C° 0 mm 1 mps 760 mmHg 71%
    05:00 0°C° 0 mm 1 mps 760 mmHg 70%
    06:00 0°C° 0 mm 1 mps 760 mmHg 69%
    07:00 0°C° 0 mm 1 mps 760 mmHg 68%
    08:00 0°C° 0 mm 1 mps 760 mmHg 67%
    09:00 +1°C° 0 mm 1 mps 760 mmHg 65%
    10:00 +1°C° 0 mm 1 mps 760 mmHg 63%
    11:00 +2°C° 0 mm 1 mps 760 mmHg 58%
    12:00 +2°C° 0 mm 2 mps 759 mmHg 52%
    13:00 +3°C° 0 mm 2 mps 759 mmHg 47%
    14:00 +2°C° 0 mm 2 mps 759 mmHg 50%
    15:00 +1°C° 0 mm 2 mps 759 mmHg 53%
    16:00 -1°C° 0 mm 2 mps 758 mmHg 55%
    17:00 -1°C° 0 mm 2 mps 758 mmHg 58%
    18:00 -2°C° 0 mm 2 mps 758 mmHg 60%
    19:00 -3°C° 0 mm 2 mps 758 mmHg 63%
    20:00 -3°C° 0 mm 2 mps 758 mmHg 64%
    21:00 -3°C° 0 mm 2 mps 758 mmHg 65%
    22:00 -3°C° 0 mm 2 mps 758 mmHg 66%
    23:00 -3°C° 0 mm 2 mps 758 mmHg 67%

    20 January, Sunday

    Time Temperature Precipitation Wind Pressure Humidity
    00:00 -3°C° 0 mm 2 mps 758 mmHg 67%
    01:00 -3°C° 0 mm 2 mps 758 mmHg 68%
    02:00 -4°C° 0 mm 2 mps 758 mmHg 68%
    03:00 -4°C° 0 mm 2 mps 758 mmHg 68%
    04:00 -4°C° 0 mm 2 mps 758 mmHg 67%
    05:00 -4°C° 0 mm 2 mps 758 mmHg 67%
    06:00 -4°C° 0 mm 2 mps 758 mmHg 67%
    07:00 -4°C° 0 mm 2 mps 758 mmHg 66%
    08:00 -4°C° 0 mm 2 mps 758 mmHg 64%
    09:00 -3°C° 0 mm 2 mps 759 mmHg 61%
    10:00 -2°C° 0 mm 2 mps 759 mmHg 59%
    11:00 +1°C° 0 mm 1 mps 759 mmHg 56%
    12:00 +2°C° 0 mm 1 mps 759 mmHg 53%
    13:00 +2°C° 0 mm 1 mps 759 mmHg 49%
    14:00 +2°C° 0 mm 1 mps 759 mmHg 51%
    15:00 +1°C° 0 mm 1 mps 760 mmHg 53%
    16:00 +1°C° 0 mm 1 mps 760 mmHg 55%
    17:00 0°C° 0 mm 1 mps 760 mmHg 56%
    18:00 -1°C° 0 mm 1 mps 761 mmHg 57%
    19:00 -1°C° 0 mm 1 mps 761 mmHg 59%
    20:00 -2°C° 0 mm 1 mps 762 mmHg 59%
    21:00 -2°C° 0 mm 1 mps 762 mmHg 60%
    22:00 -2°C° 0 mm 1 mps 763 mmHg 60%
    23:00 -2°C° 0 mm 1 mps 763 mmHg 63%

    21 January, Monday

    Time Temperature Precipitation Wind Pressure Humidity
    00:00 -2°C° 0 mm 1 mps 763 mmHg 65%
    01:00 -2°C° 0 mm 1 mps 763 mmHg 68%
    02:00 -2°C° 0 mm 1 mps 763 mmHg 71%
    03:00 -2°C° 0 mm 1 mps 764 mmHg 75%
    04:00 -1°C° 0 mm 1 mps 764 mmHg 79%
    05:00 -1°C° 0 mm 1 mps 764 mmHg 82%
    06:00 -1°C° 0 mm 1 mps 764 mmHg 86%
    07:00 -1°C° 0 mm 1 mps 764 mmHg 90%
    08:00 -1°C° 0 mm 1 mps 765 mmHg 89%
    09:00 -1°C° 0 mm 1 mps 765 mmHg 87%
    10:00 -1°C° 0 mm 1 mps 765 mmHg 86%
    11:00 0°C° 0 mm 1 mps 765 mmHg 79%
    12:00 +1°C° 0 mm 1 mps 765 mmHg 72%
    13:00 +2°C° 0 mm 1 mps 765 mmHg 66%
    14:00 +1°C° 0 mm 1 mps 765 mmHg 67%
    15:00 +1°C° 0 mm 1 mps 765 mmHg 68%
    16:00 0°C° 0 mm 1 mps 765 mmHg 68%
    17:00 -1°C° 0 mm 1 mps 765 mmHg 70%
    18:00 -3°C° 0 mm 2 mps 764 mmHg 72%
    19:00 -4°C° 0 mm 2 mps 764 mmHg 74%
    20:00 -4°C° 0 mm 2 mps 764 mmHg 75%
    21:00 -5°C° 0 mm 2 mps 764 mmHg 77%
    22:00 -5°C° 0 mm 2 mps 764 mmHg 78%
    23:00 -5°C° 0 mm 2 mps 763 mmHg 80%
    Show more